Pecos, TX

3:10 PM CDT on May 24, 2017 (GMT -0500)
Pecos Municipal

Weather History for KPEQ - September, 2013

Change the Weather History Date:

Wednesday, September 25, 2013

  Actual Average Record
Temperature  
Mean Temperature 72 °F -  
Max Temperature 95 °F 87 °F 105 °F (1977)
Min Temperature 48 °F 56 °F 44 °F (1989)
Cooling Degree Days 6    
Growing Degree Days 22 (Base 50)    
Moisture  
Dew Point 43 °F    
Average Humidity 43    
Maximum Humidity 83    
Minimum Humidity 16    
Precipitation  
Precipitation 0.00 in - - ()
Sea Level Pressure  
Sea Level Pressure 29.88 in    
Wind  
Wind Speed 3 mph (SSE)    
Max Wind Speed 14 mph    
Max Gust Speed 18 mph    
Visibility 10 miles    
Events      
Averages and records for this station are not official NWS values.
T = Trace of Precipitation, MM = Missing Value Source: NWS Daily Summary

Daily Weather History Graph

Daily Weather History Graph

Search for Another Location

Airport or City:

Trip Planner

Search our weather history database for the weather conditions in past years. The results will help you decide how hot, cold, wet, or windy it might be!

Date:

Astronomy

Sep. 25, 2013 Rise Set
Actual Time 7:44 AM CDT 7:46 PM CDT
Civil Twilight 7:20 AM CDT 8:10 PM CDT
Nautical Twilight 6:51 AM CDT 8:38 PM CDT
Astronomical Twilight 6:23 AM CDT 9:07 PM CDT
Moon No Moon Rise 1:32 PM CDT (9/25)
Length of Visible Light 12h 50m
Length of Day
12h 02m
Waning Gibbous, 64% of the Moon is Illuminated
Sep 25
Waning Gibbous
Sep 26
Last Quarter
Oct 4
New
Oct 11
First Quarter
Oct 18
Full

Hourly Weather History & Observations

Time (CDT) Temp. Dew Point Humidity Pressure Visibility Wind Dir Wind Speed Gust Speed Precip Events Conditions
12:15 AM 62.4 °F 41.4 °F 46% 29.98 in 10.0 mi SSW 5.8 mph - N/A   Clear
12:35 AM 62.2 °F 42.1 °F 48% 29.98 in 10.0 mi South 3.5 mph - N/A   Clear
12:55 AM 60.8 °F 42.3 °F 50% 29.98 in 10.0 mi South 5.8 mph - N/A   Clear
1:15 AM 59.0 °F 42.1 °F 53% 29.97 in 10.0 mi South 3.5 mph - N/A   Clear
1:35 AM 56.7 °F 41.7 °F 57% 29.97 in 10.0 mi South 5.8 mph - N/A   Clear
1:55 AM 56.5 °F 43.7 °F 62% 29.97 in 10.0 mi Calm Calm - N/A   Clear
2:15 AM 56.5 °F 44.6 °F 64% 29.97 in 10.0 mi Calm Calm - N/A   Clear
2:35 AM 55.8 °F 45.3 °F 68% 29.96 in 10.0 mi WSW 3.5 mph - N/A   Clear
2:55 AM 54.5 °F 44.8 °F 70% 29.96 in 10.0 mi Calm Calm - N/A   Clear
3:15 AM 52.3 °F 41.9 °F 68% 29.96 in 10.0 mi Calm Calm - N/A   Clear
3:35 AM 52.2 °F 43.9 °F 73% 29.95 in 10.0 mi South 3.5 mph - N/A   Clear
3:55 AM 53.4 °F 44.6 °F 72% 29.95 in 10.0 mi Calm Calm - N/A   Clear
4:15 AM 53.6 °F 44.6 °F 72% 29.95 in 10.0 mi Calm Calm - N/A   Clear
4:35 AM 53.2 °F 44.8 °F 73% 29.95 in 10.0 mi Calm Calm - N/A   Clear
4:55 AM 52.7 °F 45.0 °F 75% 29.94 in 10.0 mi Calm Calm - N/A   Clear
5:15 AM 50.9 °F 43.7 °F 76% 29.94 in 10.0 mi Calm Calm - N/A   Clear
5:35 AM 50.2 °F 42.3 °F 74% 29.94 in 10.0 mi Calm Calm - N/A   Clear
5:55 AM 49.5 °F 42.3 °F 76% 29.95 in 10.0 mi Calm Calm - N/A   Clear
6:15 AM 50.2 °F 42.3 °F 74% 29.95 in 10.0 mi Calm Calm - N/A   Clear
6:35 AM 50.0 °F 41.9 °F 74% 29.95 in 10.0 mi Calm Calm - N/A   Clear
6:55 AM 50.9 °F 42.4 °F 73% 29.95 in 10.0 mi Calm Calm - N/A   Clear
7:15 AM 50.5 °F 42.4 °F 74% 29.95 in 10.0 mi Calm Calm - N/A   Clear
7:35 AM 49.3 °F 43.9 °F 82% 29.95 in 10.0 mi Calm Calm - N/A   Clear
7:55 AM 48.7 °F 43.7 °F 83% 29.95 in 10.0 mi Calm Calm - N/A   Clear
8:15 AM 49.6 °F 44.8 °F 83% 29.95 in 10.0 mi West 3.5 mph - N/A   Clear
8:35 AM 52.5 °F 45.7 °F 78% 29.95 in 10.0 mi West 3.5 mph - N/A   Clear
8:55 AM 55.9 °F 45.9 °F 69% 29.95 in 10.0 mi Calm Calm - N/A   Clear
9:15 AM 58.3 °F 47.3 °F 67% 29.96 in 10.0 mi Calm Calm - N/A   Clear
9:35 AM 60.6 °F 47.1 °F 61% 29.96 in 10.0 mi Calm Calm - N/A   Clear
9:55 AM 62.8 °F 47.1 °F 57% 29.96 in 10.0 mi Calm Calm - N/A   Clear
10:15 AM 65.5 °F 47.1 °F 51% 29.96 in 10.0 mi Calm Calm - N/A   Clear
10:35 AM 68.7 °F 45.9 °F 44% 29.96 in 10.0 mi Calm Calm - N/A   Clear
10:55 AM 71.4 °F 45.3 °F 39% 29.96 in 10.0 mi Calm Calm - N/A   Clear
11:15 AM 74.3 °F 44.4 °F 34% 29.95 in 10.0 mi Calm Calm - N/A   Clear
11:35 AM 77.5 °F 44.1 °F 30% 29.95 in 10.0 mi Calm Calm - N/A   Clear
11:55 AM 80.1 °F 43.7 °F 28% 29.93 in 10.0 mi Calm Calm - N/A   Clear
12:15 PM 81.7 °F 42.8 °F 25% 29.93 in 10.0 mi Calm Calm - N/A   Clear
12:35 PM 84.0 °F 41.7 °F 22% 29.92 in 10.0 mi Calm Calm - N/A   Clear
12:55 PM 86.5 °F 42.6 °F 21% 29.90 in 10.0 mi SSW 3.5 mph - N/A   Clear
1:15 PM 88.3 °F 42.6 °F 20% 29.89 in 10.0 mi SE 5.8 mph - N/A   Clear
1:35 PM 89.6 °F 41.7 °F 19% 29.88 in 10.0 mi SSE 4.6 mph - N/A   Clear
1:55 PM 90.1 °F 41.0 °F 18% 29.87 in 10.0 mi South 3.5 mph - N/A   Clear
2:15 PM 91.2 °F 41.2 °F 17% 29.86 in 10.0 mi SW 3.5 mph - N/A   Clear
2:35 PM 93.4 °F 41.5 °F 17% 29.85 in 10.0 mi WSW 9.2 mph - N/A   Clear
2:55 PM 93.6 °F 41.0 °F 16% 29.84 in 10.0 mi South 6.9 mph - N/A   Clear
3:15 PM 92.7 °F 40.6 °F 16% 29.82 in 10.0 mi SW 4.6 mph - N/A   Clear
3:35 PM 93.7 °F 40.8 °F 16% 29.81 in 10.0 mi Calm Calm - N/A   Clear
3:55 PM 93.7 °F 41.0 °F 16% 29.80 in 10.0 mi SW 4.6 mph - N/A   Clear
4:15 PM 94.3 °F 41.9 °F 16% 29.79 in 10.0 mi ESE 4.6 mph - N/A   Clear
4:35 PM 94.8 °F 42.3 °F 16% 29.79 in 10.0 mi Calm Calm - N/A   Clear
4:55 PM 95.4 °F 43.0 °F 16% 29.78 in 10.0 mi South 9.2 mph - N/A   Clear
5:15 PM 95.0 °F 42.3 °F 16% 29.77 in 10.0 mi SE 8.1 mph - N/A   Clear
5:35 PM 95.9 °F 42.4 °F 16% 29.77 in 10.0 mi SE 4.6 mph - N/A   Clear
5:55 PM 95.2 °F 41.9 °F 16% 29.76 in 10.0 mi ESE 8.1 mph - N/A   Clear
6:15 PM 94.6 °F 41.5 °F 16% 29.76 in 10.0 mi SE 9.2 mph - N/A   Clear
6:35 PM 94.1 °F 41.4 °F 16% 29.76 in 10.0 mi SE 9.2 mph - N/A   Clear
6:55 PM 93.4 °F 40.6 °F 16% 29.76 in 10.0 mi ESE 8.1 mph - N/A   Clear
7:15 PM 91.8 °F 40.5 °F 17% 29.75 in 10.0 mi ESE 8.1 mph - N/A   Clear
7:35 PM 88.3 °F 40.6 °F 19% 29.75 in 10.0 mi East 5.8 mph - N/A   Clear
7:55 PM 85.3 °F 40.1 °F 20% 29.75 in 10.0 mi East 5.8 mph - N/A   Clear
8:15 PM 82.2 °F 40.3 °F 23% 29.76 in 10.0 mi East 6.9 mph - N/A   Clear
8:35 PM 80.1 °F 40.3 °F 24% 29.76 in 10.0 mi East 5.8 mph - N/A   Clear
8:55 PM 79.2 °F 39.7 °F 24% 29.76 in 10.0 mi East 9.2 mph - N/A   Clear
9:15 PM 77.2 °F 39.6 °F 26% 29.77 in 10.0 mi East 6.9 mph - N/A   Clear
9:35 PM 75.0 °F 39.6 °F 28% 29.77 in 10.0 mi East 8.1 mph - N/A   Clear
9:55 PM 75.2 °F 40.3 °F 28% 29.78 in 10.0 mi ESE 8.1 mph - N/A   Clear
10:15 PM 72.7 °F 40.5 °F 31% 29.78 in 10.0 mi East 9.2 mph - N/A   Clear
10:35 PM 74.1 °F 42.8 °F 32% 29.78 in 10.0 mi SE 11.5 mph - N/A   Clear
10:55 PM 76.5 °F 44.8 °F 32% 29.78 in 10.0 mi SE 12.7 mph - N/A   Clear
11:15 PM 76.5 °F 46.4 °F 34% 29.78 in 10.0 mi SE 13.8 mph - N/A   Clear
11:35 PM 75.6 °F 47.3 °F 37% 29.79 in 10.0 mi SE 12.7 mph 18.4 mph N/A   Clear
11:55 PM 75.2 °F 50.0 °F 41% 29.78 in 10.0 mi SE 11.5 mph - N/A   Clear